BIRKELAND (55015 NORAD) Tracking and Keplerian Element Data

This shows tracking and keplerian element data for the satellite.

Feedback or suggestion? Click here.




ElementValue
Catalog55015
NameBIRKELAND
Epoch Orbit1248
Epoch Day85.16042263
Epoch Year2023
RAAN145.9314
Inclination97.4922
Eccentricity0.0009349
Argument of Perigee312.1721
Mean Anonmoly103.8152
Mean Motion15.13787067
Decay Rate0.00015497
L11 55015U 23001G 23085.16042263 .00015497 00000+0 86037-3 0 9996
L22 55015 97.4922 145.9314 0009349 312.1721 103.8152 15.13787067 12480



Live tracking and technical data element details for BIRKELAND (NORAD 55015). BIRKELAND can be tracked NOW for your location showing map with azimuth and elevation plus other details from your city location.







IsCatalogInMostPopularTable: catalog: 55015, numindb: 9
Update: records affected: 1



GetName: 55015 BIRKELAND

Hit Count: updated at: Mon, 27 Mar 2023 06:44:27 GMT